Regional Weather Roundup
Issued by NWS Newport/Morehead, NC

Current Version | Previous Version | Graphics & Text | Print | Product List | Glossary On
Versions: 1 2 3 4 5 6 7 8 9 10 11 12 13 14 15 16 17 18 19 20 21 22 23 24 25 26 27 28 29 30 31 32 33 34 35 36 37 38 39 40 41 42 43 44 45 46 47 48 49 50
000 ASUS42 KMHX 301322 RWRMHX WEATHER ROUNDUP FOR EASTERN NORTH CAROLINA NATIONAL WEATHER SERVICE NEWPORT/MOREHEAD CITY NC 900 AM EDT THU OCT 30 2014 NOTE: "FAIR" INDICATES FEW OR NO CLOUDS BELOW 12,000 FEET WITH NO SIGNIFICANT WEATHER AND/OR OBSTRUCTIONS TO VISIBILITY NCZ015>017-031-032-045>047-102-103-301400- NORTH COAST CITY SKY/WX TMP DP RH WIND PRES REMARKS EDENTON CLOUDY 53 53 98 N8 30.03R FOG ELIZABETH CITY CLOUDY 58 52 80 NW9 30.02R KITTY HAWK CLOUDY 60 51 72 NE9 29.99S MANTEO CLOUDY 60 51 74 NE16 30.00S $$ NCZ045>047-081-094-103-104-301400- CENTRAL COAST CITY SKY/WX TMP DP RH WIND PRES REMARKS FRISCO CLOUDY 61 56 83 NE12G18 29.98R SWANQUARTER N/A 57 N/A N/A N3 29.97S $$ NCZ095-097-098-100-101-301400- SOUTHERN COAST CITY SKY/WX TMP DP RH WIND PRES REMARKS BEAUFORT CLOUDY 58 56 93 NE10 29.99R CEDAR ISLAND N/A 61 N/A N/A N14G23 30.06R JACKSONVILLE CLOUDY 58 52 80 NE12 30.00R PINEY ISLAND CLOUDY 62 53 72 N16G23 29.99R WILMINGTON CLOUDY 59 56 89 NE9 30.00R $$ NCZ011>013-027>030-043-044-078>080-089-090>093-098-301400- COASTAL PLAIN CITY SKY/WX TMP DP RH WIND PRES REMARKS AHOSKIE NOT AVBL CLINTON SUNNY 58 52 82 NE8 30.04S ELIZABETHTOWN SUNNY 57 53 84 N3 30.02R GOLDSBORO SUNNY 56 55 98 N8 30.02R GREENVILLE CLOUDY 52 52 100 N3 30.06R HAVELOCK CLOUDY 58 53 84 N12 30.01R KENANSVILLE SUNNY 56 51 82 N7 30.04R KINSTON MOSUNNY 55 54 94 N8 30.04R NEW BERN CLOUDY 58 51 78 N9 30.03R RICHLANDS MOSUNNY 57 50 77 N9 30.02S ROCKY MOUNT SUNNY 54 53 97 N5 30.05R WASHINGTON PTSUNNY 54 51 92 N6 30.04R WHITEVILLE CLOUDY 58 54 87 NE6 30.01R $$ AMZ130-135-150-152-154-156-158-170-250-252-270-ANZ085-086-088-633-658-670-301400- MARINE OBSERVATIONS STATION/POSITION TIME TEMP WIND PRES WAVE SWELL AIR SEA DIR/SP/G HT/PER HT/PER (UTC) (F) (DEG/KT/KT) (MB) (FT/S) (FT/S) CHESAPEAKE LIGHT 1300 59 360/ 14/ 15 1016.9 64 E VA BEACH 1300 61 67 30/ 17/ 21 1014.7 4/ 5 DUCK 1300 61 67 30/ 18/ 20 1015.1 2 E DUCK NOT AVBL 10 NE DUCK 1300 67 N/A 5/ 6 OREGON INLET 1300 60 68 20/ 15/ 19 1015.7 13E OREGON INLT 1300 70 N/A 5/ 6 HATTERAS CG 1300 62 71 40/ 12/ 18 1015.4 DIAMOND BUOY 1300 67 10/ 17/ 19 1014.3 5/ 6 17 S OCRACOKE NOT AVBL CAPE LOOKOUT 1300 60 20/ 14/ 16 1015.1 BEAUFORT LAB 1300 59 70 10/ 10/ 16 1014.9 30 SE NEW RIVER 1300 63 74 20/ 17/ 19 1014.1 4/ 4 5 SE WRIGHTSVLE 1300 59 71 40/ 19/ 23 N/A 225 S CAPE HAT 1243 76 77 250/ 10/ 12 1014.9 2/ 6 2/ 6 41 SE CHARLESTON 1300 69 77 10/ 16/ 17 1013.6 3/ 4 $$

USA.gov is the U.S. government's official web portal to all federal, state and local government web resources and services.